Time,TemperatureF,DewpointF,PressureIn,WindDirection,WindDirectionDegrees,WindSpeedMPH,WindSpeedGustMPH,Humidity,HourlyPrecipIn,Conditions,Clouds,dailyrainin,SoftwareType,DateUTC
2013-04-02 00:03:00,59.0,35.0,29.95,WNW,300,6.0,-999.0,41,-99.99,,,-99.99,,2013-04-02 04:03:00,
2013-04-02 00:13:00,59.0,35.0,29.95,WNW,300,6.0,-999.0,41,-99.99,,,-99.99,,2013-04-02 04:13:00,
2013-04-02 00:23:00,59.0,36.0,29.95,WNW,292,6.0,-999.0,42,-99.99,,,-99.99,,2013-04-02 04:23:00,
2013-04-02 00:33:00,59.0,36.0,29.95,WNW,292,6.0,-999.0,42,-99.99,,,-99.99,,2013-04-02 04:33:00,
2013-04-02 00:43:00,59.0,36.0,29.95,WNW,292,6.0,-999.0,42,-99.99,,,-99.99,,2013-04-02 04:43:00,
2013-04-02 00:53:00,58.0,37.0,29.95,West,271,1.0,-999.0,45,-99.99,,,-99.99,,2013-04-02 04:53:00,
2013-04-02 01:02:00,57.0,35.0,29.95,WNW,296,4.0,-999.0,44,-99.99,,,-99.99,,2013-04-02 05:02:00,
2013-04-02 01:12:00,57.0,35.0,29.95,WNW,296,4.0,-999.0,44,-99.99,,,-99.99,,2013-04-02 05:12:00,
2013-04-02 01:22:00,58.0,34.0,29.95,WNW,300,7.0,-999.0,41,-99.99,,,-99.99,,2013-04-02 05:22:00,
2013-04-02 01:32:00,57.0,34.0,29.95,NNW,331,6.0,-999.0,42,-99.99,,,-99.99,,2013-04-02 05:32:00,
2013-04-02 01:43:00,57.0,34.0,29.95,NNW,331,6.0,-999.0,42,-99.99,,,-99.99,,2013-04-02 05:43:00,
2013-04-02 01:52:00,57.0,34.0,29.95,WNW,298,7.0,-999.0,42,-99.99,,,-99.99,,2013-04-02 05:52:00,
2013-04-02 02:02:00,56.0,34.0,29.96,West,262,5.0,-999.0,43,-99.99,,,-99.99,,2013-04-02 06:02:00,
2013-04-02 02:12:00,56.0,34.0,29.96,West,262,5.0,-999.0,43,-99.99,,,-99.99,,2013-04-02 06:12:00,
2013-04-02 02:22:00,56.0,34.0,29.96,WNW,283,6.0,-999.0,43,-99.99,,,-99.99,,2013-04-02 06:22:00,
2013-04-02 02:32:00,56.0,34.0,29.96,West,259,6.0,-999.0,44,-99.99,,,-99.99,,2013-04-02 06:32:00,
2013-04-02 02:42:00,56.0,34.0,29.96,West,259,6.0,-999.0,44,-99.99,,,-99.99,,2013-04-02 06:42:00,
2013-04-02 02:52:00,55.0,33.0,29.96,West,260,4.0,-999.0,44,-99.99,,,-99.99,,2013-04-02 06:52:00,
2013-04-02 03:02:00,55.0,32.0,29.96,NW,319,4.0,-999.0,42,-99.99,,,-99.99,,2013-04-02 07:02:00,
2013-04-02 03:13:00,55.0,32.0,29.96,NW,319,4.0,-999.0,42,-99.99,,,-99.99,,2013-04-02 07:13:00,
2013-04-02 03:22:00,55.0,32.0,29.96,NW,311,3.0,-999.0,42,-99.99,,,-99.99,,2013-04-02 07:22:00,
2013-04-02 03:32:00,55.0,32.0,29.97,NW,313,2.0,-999.0,42,-99.99,,,-99.99,,2013-04-02 07:32:00,
2013-04-02 03:43:00,55.0,32.0,29.97,NW,313,2.0,-999.0,42,-99.99,,,-99.99,,2013-04-02 07:43:00,
2013-04-02 03:52:00,54.0,31.0,29.97,WNW,288,3.0,-999.0,42,-99.99,,,-99.99,,2013-04-02 07:52:00,
2013-04-02 04:02:00,54.0,32.0,29.97,WNW,285,1.0,-999.0,43,-99.99,,,-99.99,,2013-04-02 08:02:00,
2013-04-02 04:13:00,54.0,32.0,29.97,WNW,285,1.0,-999.0,43,-99.99,,,-99.99,,2013-04-02 08:13:00,
2013-04-02 04:22:00,54.0,32.0,29.97,West,267,1.0,-999.0,43,-99.99,,,-99.99,,2013-04-02 08:22:00,
2013-04-02 04:32:00,53.0,33.0,29.98,SE,140,1.0,-999.0,47,-99.99,,,-99.99,,2013-04-02 08:32:00,
2013-04-02 04:42:00,53.0,33.0,29.98,SE,140,1.0,-999.0,47,-99.99,,,-99.99,,2013-04-02 08:42:00,
2013-04-02 04:52:00,51.0,33.0,29.98,SE,140,0.0,-999.0,49,-99.99,,,-99.99,,2013-04-02 08:52:00,
2013-04-02 05:02:00,51.0,34.0,29.99,SSE,155,0.0,-999.0,52,-99.99,,,-99.99,,2013-04-02 09:02:00,
2013-04-02 05:13:00,51.0,34.0,29.99,SSE,155,0.0,-999.0,52,-99.99,,,-99.99,,2013-04-02 09:13:00,
2013-04-02 05:22:00,51.0,33.0,29.99,SW,217,0.0,-999.0,50,-99.99,,,-99.99,,2013-04-02 09:22:00,
2013-04-02 05:33:00,51.0,33.0,30.00,NW,323,1.0,-999.0,50,-99.99,,,-99.99,,2013-04-02 09:33:00,
2013-04-02 05:43:00,51.0,33.0,30.00,NW,323,1.0,-999.0,50,-99.99,,,-99.99,,2013-04-02 09:43:00,
2013-04-02 05:52:00,50.0,33.0,30.01,NW,323,0.0,-999.0,51,-99.99,,,-99.99,,2013-04-02 09:52:00,
2013-04-02 06:03:00,49.0,34.0,30.02,East,89,1.0,-999.0,55,-99.99,,,-99.99,,2013-04-02 10:03:00,
2013-04-02 06:13:00,49.0,34.0,30.02,East,89,1.0,-999.0,55,-99.99,,,-99.99,,2013-04-02 10:13:00,
2013-04-02 06:24:00,48.0,33.0,30.02,ENE,58,0.0,-999.0,56,-99.99,,,-99.99,,2013-04-02 10:24:00,
2013-04-02 06:33:00,48.0,34.0,30.02,North,9,1.0,-999.0,57,-99.99,,,-99.99,,2013-04-02 10:33:00,
2013-04-02 06:42:00,48.0,34.0,30.02,North,9,1.0,-999.0,57,-99.99,,,-99.99,,2013-04-02 10:42:00,
2013-04-02 06:52:00,48.0,34.0,30.03,East,80,1.0,-999.0,57,-99.99,,,-99.99,,2013-04-02 10:52:00,
2013-04-02 07:02:00,47.0,33.0,30.05,East,80,0.0,-999.0,59,-99.99,,,-99.99,,2013-04-02 11:02:00,
2013-04-02 07:12:00,47.0,33.0,30.05,East,80,0.0,-999.0,59,-99.99,,,-99.99,,2013-04-02 11:12:00,
2013-04-02 07:22:00,46.0,33.0,30.06,North,360,1.0,-999.0,60,-99.99,,,-99.99,,2013-04-02 11:22:00,
2013-04-02 07:33:00,47.0,34.0,30.06,North,349,1.0,-999.0,61,-99.99,,,-99.99,,2013-04-02 11:33:00,
2013-04-02 07:43:00,47.0,34.0,30.06,North,349,1.0,-999.0,61,-99.99,,,-99.99,,2013-04-02 11:43:00,
2013-04-02 07:52:00,46.0,32.0,30.06,North,350,0.0,-999.0,59,-99.99,,,-99.99,,2013-04-02 11:52:00,
2013-04-02 08:02:00,47.0,33.0,30.08,NW,325,2.0,-999.0,57,-99.99,,,-99.99,,2013-04-02 12:02:00,
2013-04-02 08:12:00,47.0,33.0,30.08,NW,325,2.0,-999.0,57,-99.99,,,-99.99,,2013-04-02 12:12:00,
2013-04-02 08:23:00,47.0,33.0,30.09,North,355,1.0,-999.0,58,-99.99,,,-99.99,,2013-04-02 12:23:00,
2013-04-02 08:32:00,47.0,34.0,30.10,North,355,0.0,-999.0,60,-99.99,,,-99.99,,2013-04-02 12:32:00,
2013-04-02 08:42:00,47.0,34.0,30.10,North,355,0.0,-999.0,60,-99.99,,,-99.99,,2013-04-02 12:42:00,
2013-04-02 08:52:00,47.0,33.0,30.10,North,355,2.0,-999.0,58,-99.99,,,-99.99,,2013-04-02 12:52:00,
2013-04-02 09:02:00,48.0,34.0,30.10,North,355,1.0,-999.0,58,-99.99,,,-99.99,,2013-04-02 13:02:00,
2013-04-02 09:12:00,48.0,34.0,30.10,North,355,1.0,-999.0,58,-99.99,,,-99.99,,2013-04-02 13:12:00,
2013-04-02 09:22:00,49.0,34.0,30.10,NW,311,2.0,-999.0,56,-99.99,,,-99.99,,2013-04-02 13:22:00,
2013-04-02 09:33:00,49.0,33.0,30.10,NW,318,3.0,-999.0,54,-99.99,,,-99.99,,2013-04-02 13:33:00,
2013-04-02 09:42:00,49.0,33.0,30.10,NW,318,3.0,-999.0,54,-99.99,,,-99.99,,2013-04-02 13:42:00,
2013-04-02 09:52:00,50.0,33.0,30.10,NW,314,2.0,-999.0,51,-99.99,,,-99.99,,2013-04-02 13:52:00,
2013-04-02 10:02:00,51.0,33.0,30.11,NW,326,2.0,-999.0,49,-99.99,,,-99.99,,2013-04-02 14:02:00,
2013-04-02 10:12:00,51.0,33.0,30.11,NW,326,2.0,-999.0,49,-99.99,,,-99.99,,2013-04-02 14:12:00,
2013-04-02 10:23:00,52.0,33.0,30.10,NW,321,1.0,-999.0,48,-99.99,,,-99.99,,2013-04-02 14:23:00,
2013-04-02 10:32:00,54.0,32.0,30.12,WNW,288,0.0,-999.0,43,-99.99,,,-99.99,,2013-04-02 14:32:00,
2013-04-02 10:42:00,54.0,32.0,30.12,WNW,288,0.0,-999.0,43,-99.99,,,-99.99,,2013-04-02 14:42:00,
2013-04-02 10:52:00,54.0,33.0,30.11,WSW,245,1.0,-999.0,44,-99.99,,,-99.99,,2013-04-02 14:52:00,
2013-04-02 11:02:00,54.0,32.0,30.11,NW,325,2.0,-999.0,43,-99.99,,,-99.99,,2013-04-02 15:02:00,
2013-04-02 11:12:00,54.0,32.0,30.11,NW,325,2.0,-999.0,43,-99.99,,,-99.99,,2013-04-02 15:12:00,
2013-04-02 11:23:00,55.0,32.0,30.11,SSW,202,2.0,-999.0,41,-99.99,,,-99.99,,2013-04-02 15:23:00,
2013-04-02 11:33:00,57.0,32.0,30.11,NW,311,1.0,-999.0,38,-99.99,,,-99.99,,2013-04-02 15:33:00,
2013-04-02 11:43:00,57.0,32.0,30.11,NW,311,1.0,-999.0,38,-99.99,,,-99.99,,2013-04-02 15:43:00,
2013-04-02 11:55:00,58.0,31.0,30.11,WNW,302,1.0,-999.0,36,-99.99,,,-99.99,,2013-04-02 15:55:00,
2013-04-02 12:04:00,60.0,32.0,30.11,South,188,1.0,-999.0,34,-99.99,,,-99.99,,2013-04-02 16:04:00,
2013-04-02 12:13:00,60.0,32.0,30.11,South,188,1.0,-999.0,34,-99.99,,,-99.99,,2013-04-02 16:13:00,
2013-04-02 12:25:00,60.0,30.0,30.11,SW,224,2.0,-999.0,32,-99.99,,,-99.99,,2013-04-02 16:25:00,
2013-04-02 12:38:00,60.0,28.0,30.11,SE,141,2.0,-999.0,30,-99.99,,,-99.99,,2013-04-02 16:38:00,
2013-04-02 12:53:00,61.0,27.0,30.10,WNW,293,2.0,-999.0,27,-99.99,,,-99.99,,2013-04-02 16:53:00,
2013-04-02 13:06:00,59.0,26.0,30.10,WNW,300,5.0,-999.0,28,-99.99,,,-99.99,,2013-04-02 17:06:00,
2013-04-02 13:13:00,59.0,26.0,30.10,WNW,300,5.0,-999.0,28,-99.99,,,-99.99,,2013-04-02 17:13:00,
2013-04-02 13:25:00,60.0,27.0,30.09,NW,314,3.0,-999.0,28,-99.99,,,-99.99,,2013-04-02 17:25:00,
2013-04-02 13:35:00,62.0,28.0,30.09,SW,219,3.0,-999.0,27,-99.99,,,-99.99,,2013-04-02 17:35:00,
2013-04-02 13:43:00,62.0,28.0,30.09,SW,219,3.0,-999.0,27,-99.99,,,-99.99,,2013-04-02 17:43:00,
2013-04-02 13:54:00,63.0,27.0,30.07,South,183,2.0,-999.0,25,-99.99,,,-99.99,,2013-04-02 17:54:00,
2013-04-02 14:04:00,64.0,26.0,30.07,NW,304,2.0,-999.0,24,-99.99,,,-99.99,,2013-04-02 18:04:00,
2013-04-02 14:13:00,64.0,26.0,30.07,NW,304,2.0,-999.0,24,-99.99,,,-99.99,,2013-04-02 18:13:00,
2013-04-02 14:23:00,65.0,28.0,30.06,SW,215,2.0,-999.0,25,-99.99,,,-99.99,,2013-04-02 18:23:00,
2013-04-02 14:34:00,66.0,29.0,30.05,SE,126,2.0,-999.0,25,-99.99,,,-99.99,,2013-04-02 18:34:00,
2013-04-02 14:43:00,66.0,29.0,30.05,SE,126,2.0,-999.0,25,-99.99,,,-99.99,,2013-04-02 18:43:00,
2013-04-02 14:54:00,65.0,27.0,30.04,North,349,4.0,-999.0,24,-99.99,,,-99.99,,2013-04-02 18:54:00,
2013-04-02 15:03:00,65.0,27.0,30.04,North,349,4.0,-999.0,24,-99.99,,,-99.99,,2013-04-02 19:03:00,
2013-04-02 15:13:00,65.0,27.0,30.04,North,349,4.0,-999.0,24,-99.99,,,-99.99,,2013-04-02 19:13:00,
2013-04-02 15:23:00,66.0,23.0,30.03,SSW,198,4.0,-999.0,19,-99.99,,,-99.99,,2013-04-02 19:23:00,
2013-04-02 15:34:00,68.0,24.0,30.02,SSW,198,2.0,-999.0,19,-99.99,,,-99.99,,2013-04-02 19:34:00,
2013-04-02 15:45:00,68.0,24.0,30.02,SSW,198,2.0,-999.0,19,-99.99,,,-99.99,,2013-04-02 19:45:00,
2013-04-02 15:54:00,67.0,23.0,30.01,South,186,5.0,-999.0,19,-99.99,,,-99.99,,2013-04-02 19:54:00,
2013-04-02 16:04:00,69.0,25.0,30.00,WSW,240,3.0,-999.0,19,-99.99,,,-99.99,,2013-04-02 20:04:00,
2013-04-02 16:14:00,69.0,25.0,30.00,WSW,240,3.0,-999.0,19,-99.99,,,-99.99,,2013-04-02 20:14:00,
2013-04-02 16:23:00,69.0,27.0,30.00,South,171,3.0,-999.0,21,-99.99,,,-99.99,,2013-04-02 20:23:00,
2013-04-02 16:44:00,69.0,29.0,29.99,SW,226,6.0,-999.0,22,-99.99,,,-99.99,,2013-04-02 20:44:00,
2013-04-02 16:53:00,69.0,29.0,29.99,SW,226,6.0,-999.0,22,-99.99,,,-99.99,,2013-04-02 20:53:00,
2013-04-02 17:04:00,70.0,32.0,29.98,West,278,3.0,-999.0,24,-99.99,,,-99.99,,2013-04-02 21:04:00,
2013-04-02 17:13:00,70.0,32.0,29.98,West,278,3.0,-999.0,24,-99.99,,,-99.99,,2013-04-02 21:13:00,
2013-04-02 17:23:00,70.0,30.0,29.98,SSW,192,5.0,-999.0,23,-99.99,,,-99.99,,2013-04-02 21:23:00,
2013-04-02 17:35:00,70.0,32.0,29.98,NNE,16,4.0,-999.0,24,-99.99,,,-99.99,,2013-04-02 21:35:00,
2013-04-02 17:44:00,70.0,32.0,29.98,NNE,16,4.0,-999.0,24,-99.99,,,-99.99,,2013-04-02 21:44:00,
2013-04-02 17:55:00,70.0,33.0,29.98,SSW,194,4.0,-999.0,25,-99.99,,,-99.99,,2013-04-02 21:55:00,
2013-04-02 18:04:00,69.0,32.0,29.98,SW,233,4.0,-999.0,25,-99.99,,,-99.99,,2013-04-02 22:04:00,
2013-04-02 18:14:00,69.0,32.0,29.98,SW,233,4.0,-999.0,25,-99.99,,,-99.99,,2013-04-02 22:14:00,
2013-04-02 18:24:00,68.0,32.0,29.98,South,182,2.0,-999.0,26,-99.99,,,-99.99,,2013-04-02 22:24:00,
2013-04-02 18:33:00,68.0,32.0,29.98,SSE,155,2.0,-999.0,26,-99.99,,,-99.99,,2013-04-02 22:33:00,
2013-04-02 18:43:00,68.0,32.0,29.98,SSE,155,2.0,-999.0,26,-99.99,,,-99.99,,2013-04-02 22:43:00,
2013-04-02 18:53:00,69.0,33.0,29.98,SSW,199,2.0,-999.0,26,-99.99,,,-99.99,,2013-04-02 22:53:00,
2013-04-02 19:03:00,69.0,33.0,29.98,SSW,199,2.0,-999.0,26,-99.99,,,-99.99,,2013-04-02 23:03:00,
2013-04-02 19:13:00,69.0,33.0,29.98,SSW,199,2.0,-999.0,26,-99.99,,,-99.99,,2013-04-02 23:13:00,
2013-04-02 19:24:00,68.0,32.0,29.99,South,187,2.0,-999.0,26,-99.99,,,-99.99,,2013-04-02 23:24:00,
2013-04-02 19:35:00,67.0,32.0,29.99,SSW,204,1.0,-999.0,27,-99.99,,,-99.99,,2013-04-02 23:35:00,
2013-04-02 19:43:00,67.0,32.0,29.99,SSW,204,1.0,-999.0,27,-99.99,,,-99.99,,2013-04-02 23:43:00,
2013-04-02 19:53:00,67.0,32.0,29.99,South,177,1.0,-999.0,27,-99.99,,,-99.99,,2013-04-02 23:53:00,
2013-04-02 20:04:00,66.0,32.0,30.00,South,188,1.0,-999.0,28,-99.99,,,-99.99,,2013-04-03 00:04:00,
2013-04-02 20:13:00,66.0,32.0,30.00,South,188,1.0,-999.0,28,-99.99,,,-99.99,,2013-04-03 00:13:00,
2013-04-02 20:25:00,66.0,32.0,30.01,NNW,332,1.0,-999.0,28,-99.99,,,-99.99,,2013-04-03 00:25:00,
2013-04-02 20:34:00,66.0,32.0,30.01,NNW,332,1.0,-999.0,28,-99.99,,,-99.99,,2013-04-03 00:34:00,
2013-04-02 20:47:00,66.0,32.0,30.01,NNW,332,1.0,-999.0,28,-99.99,,,-99.99,,2013-04-03 00:47:00,
2013-04-02 20:53:00,65.0,30.0,30.01,SW,235,2.0,-999.0,27,-99.99,,,-99.99,,2013-04-03 00:53:00,
2013-04-02 21:04:00,64.0,23.0,30.03,WSW,257,2.0,-999.0,21,-99.99,,,-99.99,,2013-04-03 01:04:00,
2013-04-02 21:13:00,64.0,23.0,30.03,WSW,257,2.0,-999.0,21,-99.99,,,-99.99,,2013-04-03 01:13:00,
2013-04-02 21:23:00,64.0,22.0,30.03,NNW,343,2.0,-999.0,20,-99.99,,,-99.99,,2013-04-03 01:23:00,
2013-04-02 21:33:00,63.0,24.0,30.04,NW,312,4.0,-999.0,22,-99.99,,,-99.99,,2013-04-03 01:33:00,
2013-04-02 21:42:00,63.0,24.0,30.04,NW,312,4.0,-999.0,22,-99.99,,,-99.99,,2013-04-03 01:42:00,
2013-04-02 21:53:00,62.0,26.0,30.04,NW,313,3.0,-999.0,25,-99.99,,,-99.99,,2013-04-03 01:53:00,
2013-04-02 22:04:00,61.0,24.0,30.06,NW,305,4.0,-999.0,24,-99.99,,,-99.99,,2013-04-03 02:04:00,
2013-04-02 22:25:00,60.0,23.0,30.06,NNW,327,3.0,-999.0,24,-99.99,,,-99.99,,2013-04-03 02:25:00,
2013-04-02 22:34:00,60.0,24.0,30.05,NNW,327,3.0,-999.0,25,-99.99,,,-99.99,,2013-04-03 02:34:00,
2013-04-02 22:44:00,60.0,24.0,30.05,NNW,327,3.0,-999.0,25,-99.99,,,-99.99,,2013-04-03 02:44:00,
2013-04-02 22:52:00,59.0,23.0,30.06,NW,314,3.0,-999.0,25,-99.99,,,-99.99,,2013-04-03 02:52:00,
2013-04-02 23:06:00,59.0,22.0,30.06,NW,317,2.0,-999.0,24,-99.99,,,-99.99,,2013-04-03 03:06:00,
2013-04-02 23:14:00,59.0,22.0,30.06,NW,317,2.0,-999.0,24,-99.99,,,-99.99,,2013-04-03 03:14:00,
2013-04-02 23:23:00,59.0,23.0,30.07,NW,323,4.0,-999.0,25,-99.99,,,-99.99,,2013-04-03 03:23:00,
2013-04-02 23:38:00,58.0,22.0,30.07,NW,325,1.0,-999.0,25,-99.99,,,-99.99,,2013-04-03 03:38:00,
2013-04-02 23:44:00,58.0,22.0,30.07,NW,325,1.0,-999.0,25,-99.99,,,-99.99,,2013-04-03 03:44:00,
2013-04-02 23:53:00,58.0,23.0,30.07,NW,322,2.0,-999.0,26,-99.99,,,-99.99,,2013-04-03 03:53:00,